Location: Hilton Head Island
(32.2163°N, 80.7526°W)
Time: 02:51:47
(UTC-04:00)

Vanguard 2 Rocket - Pass Details

Date: 18 February 2026
Orbit: 553 x 3286 km, 32.9° (Epoch: 9 March)

Event Time Altitude Azimuth Distance (km) Brightness Sun altitude
Rises 10:16:40 0° 217° (SW) 6,878 11.5 34.9°
Reaches altitude 10° 10:21:24 10° 211° (SSW) 6,052 11.4 35.6°
Maximum altitude 10:39:34 45° 146° (SE) 3,943 12.9 38.1°
Drops below altitude 10° 10:55:14 10° 81° (E) 5,318 11.2 40.0°
Sets 10:59:00 0° 75° (ENE) 6,022 11.3 40.4°
